HETCH HETCHY (HTH)

Elevation: 3870' · TUOLUMNE R basin · Operator: Hetch Hetchy Water and Power

Provisional data, subject to change.
Query executed Wednesday at 15:55:09   clock

Select a sensor type for a plot of data.
Note: Reservoir Flows are daily averages.

Earlier

Date RES ELE    STORAGE    RES CHG    OUTFLOW    INFLOW    PPT INC    RAIN    PPTINC4   
 FEET   AF   AF   CFS   CFS   INCHES   INCHES   INCHES  
12/29/2014 -- 233336 -- 183 -- 0.00 8.68 0.00
12/30/2014 -- 233168 -- 240 -- 0.00 8.68 0.00
12/31/2014 -- -- -- -- -- 0.00 8.68 0.00
01/01/2015 -- 232664 -- 202 -- 0.00 8.68 0.00
01/02/2015 -- 232496 -- 188 -- 0.00 8.68 0.00
01/03/2015 -- 132328 -- 233 -- 0.00 8.68 0.00
01/04/2015 -- 231993 -- 184 -- 0.00 8.68 0.00
01/05/2015 -- 231826 -- 178 -- 0.00 8.68 0.00
01/06/2015 -- 231993 -- 44 -- 0.00 8.68 0.00
01/07/2015 -- 232160 -- 44 -- 0.00 8.68 0.00
01/08/2015 -- 232328 -- 43 -- 0.00 8.68 0.00
01/09/2015 -- 232496 -- 78 -- 0.00 8.68 0.00
01/10/2015 -- 232496 -- 112 -- 0.00 8.68 0.00
01/11/2015 -- 232664 -- 114 -- 0.00 8.68 0.00
01/12/2015 -- 232832 -- 67 -- 0.00 8.68 0.00
01/13/2015 -- 233000 -- 42 -- 0.00 8.68 0.00
01/14/2015 -- 233168 -- 40 -- 0.00 8.68 0.00
01/15/2015 -- 233336 -- 40 -- 0.00 8.68 0.00
01/16/2015 -- 233336 -- 106 -- 0.00 8.68 0.00
01/17/2015 -- 233168 -- 184 -- 0.00 8.68 0.00
01/18/2015 -- 233168 -- 148 -- 0.00 8.68 0.00
01/19/2015 -- 233168 -- 124 -- 0.00 8.68 0.00
01/20/2015 -- 233168 -- 158 -- 0.00 8.68 0.00
01/21/2015 -- 233000 -- 149 -- 0.00 8.68 0.00
01/22/2015 -- 232832 -- 166 -- 0.00 8.68 0.00
01/23/2015 -- 232832 -- 170 -- 0.00 8.68 0.00
01/24/2015 -- 232664 -- 177 -- 0.00 8.68 0.00
01/25/2015 -- 232496 -- 141 -- 0.00 8.68 0.00
01/26/2015 -- 232496 -- 137 -- 0.00 8.68 0.00
01/27/2015 -- 232496 -- 81 -- 0.14 8.82 0.00
01/28/2015 -- -- -- -- -- 0.00 -- 0.13

Later | Latest

Warning! This data is preliminary and subject to revision.

Show HTH Map | Plot HTH Data | 1 Month HTH Data | Real-Time HTH Data | HTH Info